• In Hungary
  • List of Countries
  • For 7 days
  • Water Temperature
  • Satellite Maps
  • Weather Map
  • News
  • Weather Widgets
  • user-avatar
    Login

    Hourly Weather Ust-Muya

    Today, 18 February, Sunday

    Time Temperature Precipitation Wind Pressure Humidity
    00:00 -21°C° 0 mm 1 mps 724 mmHg 88%
    01:00 -21°C° 0 mm 1 mps 724 mmHg 88%
    02:00 -21°C° 0 mm 1 mps 723 mmHg 88%
    03:00 -21°C° 0 mm 1 mps 723 mmHg 88%
    04:00 -21°C° 0 mm 1 mps 723 mmHg 88%
    05:00 -21°C° 0 mm 1 mps 723 mmHg 89%
    06:00 -21°C° 0 mm 1 mps 723 mmHg 89%
    07:00 -21°C° 0 mm 1 mps 724 mmHg 89%
    08:00 -20°C° 0 mm 1 mps 723 mmHg 88%
    09:00 -18°C° 0 mm 1 mps 723 mmHg 85%
    10:00 -17°C° 0 mm 1 mps 723 mmHg 83%
    11:00 -15°C° 0 mm 1 mps 723 mmHg 80%
    12:00 -15°C° 0 mm 1 mps 722 mmHg 77%
    13:00 -16°C° 0 mm 2 mps 722 mmHg 75%
    14:00 -16°C° 0 mm 2 mps 722 mmHg 72%
    15:00 -16°C° 0 mm 2 mps 722 mmHg 76%
    16:00 -17°C° 0 mm 2 mps 722 mmHg 80%
    17:00 -16°C° 0 mm 1 mps 723 mmHg 84%
    18:00 -19°C° 0 mm 2 mps 723 mmHg 85%
    19:00 -20°C° 0 mm 2 mps 723 mmHg 86%
    20:00 -21°C° 0 mm 2 mps 723 mmHg 86%
    21:00 -21°C° 0 mm 2 mps 724 mmHg 87%
    22:00 -23°C° 0 mm 2 mps 724 mmHg 87%
    23:00 -23°C° 0 mm 2 mps 724 mmHg 87%

    Tomorrow, 19 February, Monday

    Time Temperature Precipitation Wind Pressure Humidity
    00:00 -21°C° 0 mm 1 mps 724 mmHg 87%
    01:00 -21°C° 0 mm 1 mps 724 mmHg 87%
    02:00 -22°C° 0 mm 1 mps 724 mmHg 87%
    03:00 -22°C° 0 mm 1 mps 724 mmHg 87%
    04:00 -22°C° 0 mm 1 mps 724 mmHg 87%
    05:00 -22°C° 0 mm 1 mps 724 mmHg 87%
    06:00 -22°C° 0 mm 1 mps 724 mmHg 87%
    07:00 -23°C° 0 mm 1 mps 724 mmHg 87%
    08:00 -23°C° 0 mm 1 mps 724 mmHg 86%
    09:00 -21°C° 0 mm 1 mps 724 mmHg 83%
    10:00 -19°C° 0 mm 1 mps 724 mmHg 79%
    11:00 -17°C° 0 mm 1 mps 724 mmHg 76%
    12:00 -16°C° 0 mm 1 mps 724 mmHg 73%
    13:00 -17°C° 0 mm 2 mps 723 mmHg 70%
    14:00 -16°C° 0 mm 2 mps 723 mmHg 67%
    15:00 -18°C° 0 mm 2 mps 723 mmHg 72%
    16:00 -17°C° 0 mm 1 mps 723 mmHg 76%
    17:00 -18°C° 0 mm 1 mps 723 mmHg 81%
    18:00 -19°C° 0 mm 1 mps 723 mmHg 82%
    19:00 -20°C° 0 mm 1 mps 724 mmHg 83%
    20:00 -21°C° 0 mm 1 mps 724 mmHg 84%
    21:00 -22°C° 0 mm 1 mps 724 mmHg 83%
    22:00 -22°C° 0 mm 1 mps 724 mmHg 83%
    23:00 -22°C° 0 mm 1 mps 724 mmHg 83%

    Day after tomorrow, 20 February, Tuesday

    Time Temperature Precipitation Wind Pressure Humidity
    00:00 -23°C° 0 mm 1 mps 724 mmHg 83%
    01:00 -23°C° 0 mm 1 mps 724 mmHg 83%
    02:00 -23°C° 0 mm 1 mps 723 mmHg 84%
    03:00 -23°C° 0 mm 1 mps 723 mmHg 84%
    04:00 -23°C° 0 mm 1 mps 723 mmHg 84%
    05:00 -23°C° 0 mm 1 mps 723 mmHg 84%
    06:00 -23°C° 0 mm 1 mps 723 mmHg 84%
    07:00 -23°C° 0 mm 1 mps 722 mmHg 84%
    08:00 -23°C° 0 mm 1 mps 722 mmHg 85%
    09:00 -21°C° 0 mm 1 mps 722 mmHg 81%
    10:00 -19°C° 0 mm 1 mps 722 mmHg 78%
    11:00 -17°C° 0 mm 1 mps 721 mmHg 75%
    12:00 -16°C° 0 mm 1 mps 721 mmHg 74%
    13:00 -15°C° 0 mm 1 mps 720 mmHg 74%
    14:00 -15°C° 0 mm 1 mps 719 mmHg 73%
    15:00 -16°C° 0 mm 1 mps 719 mmHg 78%
    16:00 -16°C° 0 mm 1 mps 719 mmHg 84%
    17:00 -17°C° 0 mm 1 mps 719 mmHg 89%
    18:00 -18°C° 0 mm 1 mps 719 mmHg 89%
    19:00 -18°C° 0 mm 1 mps 719 mmHg 90%
    20:00 -19°C° 0 mm 1 mps 719 mmHg 91%
    21:00 -19°C° 0.1 mm 1 mps 719 mmHg 91%
    22:00 -19°C° 0.1 mm 1 mps 719 mmHg 91%
    23:00 -19°C° 0.1 mm 1 mps 719 mmHg 92%

    21 February, Wednesday

    Time Temperature Precipitation Wind Pressure Humidity
    00:00 -19°C° 0 mm 1 mps 718 mmHg 92%
    01:00 -19°C° 0 mm 1 mps 718 mmHg 92%
    02:00 -20°C° 0 mm 1 mps 718 mmHg 92%
    03:00 -20°C° 0 mm 1 mps 718 mmHg 92%
    04:00 -20°C° 0 mm 1 mps 718 mmHg 91%
    05:00 -21°C° 0 mm 1 mps 718 mmHg 91%
    06:00 -21°C° 0 mm 1 mps 718 mmHg 91%
    07:00 -21°C° 0 mm 1 mps 719 mmHg 90%
    08:00 -21°C° 0 mm 1 mps 719 mmHg 90%
    09:00 -19°C° 0 mm 1 mps 719 mmHg 86%
    10:00 -17°C° 0 mm 1 mps 719 mmHg 82%
    11:00 -16°C° 0 mm 1 mps 719 mmHg 78%
    12:00 -17°C° 0 mm 2 mps 718 mmHg 75%
    13:00 -16°C° 0 mm 2 mps 718 mmHg 71%
    14:00 -16°C° 0 mm 2 mps 718 mmHg 68%
    15:00 -17°C° 0 mm 2 mps 718 mmHg 72%
    16:00 -16°C° 0 mm 1 mps 718 mmHg 77%
    17:00 -17°C° 0 mm 1 mps 718 mmHg 81%
    18:00 -18°C° 0 mm 1 mps 718 mmHg 82%
    19:00 -19°C° 0 mm 1 mps 718 mmHg 84%
    20:00 -21°C° 0 mm 1 mps 719 mmHg 85%
    21:00 -21°C° 0 mm 1 mps 718 mmHg 85%
    22:00 -21°C° 0 mm 1 mps 718 mmHg 85%
    23:00 -22°C° 0 mm 1 mps 718 mmHg 85%

    22 February, Thursday

    Time Temperature Precipitation Wind Pressure Humidity
    00:00 -22°C° 0 mm 1 mps 718 mmHg 85%
    01:00 -23°C° 0 mm 1 mps 718 mmHg 85%
    02:00 -23°C° 0 mm 1 mps 718 mmHg 85%
    03:00 -23°C° 0 mm 1 mps 718 mmHg 85%
    04:00 -23°C° 0 mm 1 mps 718 mmHg 85%
    05:00 -24°C° 0 mm 1 mps 718 mmHg 85%
    06:00 -24°C° 0 mm 1 mps 718 mmHg 85%
    07:00 -24°C° 0 mm 1 mps 718 mmHg 85%
    08:00 -24°C° 0 mm 1 mps 719 mmHg 85%
    09:00 -22°C° 0 mm 1 mps 719 mmHg 82%
    10:00 -19°C° 0 mm 1 mps 719 mmHg 79%
    11:00 -17°C° 0 mm 1 mps 719 mmHg 76%
    12:00 -16°C° 0 mm 1 mps 718 mmHg 74%
    13:00 -16°C° 0 mm 1 mps 718 mmHg 72%
    14:00 -15°C° 0 mm 1 mps 718 mmHg 70%
    15:00 -16°C° 0 mm 1 mps 718 mmHg 74%
    16:00 -17°C° 0 mm 1 mps 719 mmHg 78%
    17:00 -18°C° 0 mm 1 mps 719 mmHg 82%
    18:00 -20°C° 0 mm 1 mps 719 mmHg 83%
    19:00 -21°C° 0 mm 1 mps 720 mmHg 84%
    20:00 -22°C° 0 mm 1 mps 721 mmHg 85%
    21:00 -23°C° 0 mm 1 mps 721 mmHg 85%
    22:00 -23°C° 0 mm 1 mps 721 mmHg 85%
    23:00 -24°C° 0 mm 1 mps 721 mmHg 85%

    23 February, Friday

    Time Temperature Precipitation Wind Pressure Humidity
    00:00 -24°C° 0 mm 1 mps 721 mmHg 84%
    01:00 -25°C° 0 mm 1 mps 722 mmHg 84%
    02:00 -25°C° 0 mm 1 mps 722 mmHg 83%
    03:00 -25°C° 0 mm 1 mps 722 mmHg 83%
    04:00 -25°C° 0 mm 1 mps 722 mmHg 82%
    05:00 -27°C° 0 mm 1 mps 723 mmHg 82%
    06:00 -27°C° 0 mm 1 mps 723 mmHg 81%
    07:00 -27°C° 0 mm 1 mps 723 mmHg 80%
    08:00 -25°C° 0 mm 1 mps 723 mmHg 79%
    09:00 -23°C° 0 mm 1 mps 723 mmHg 76%
    10:00 -21°C° 0 mm 1 mps 723 mmHg 72%
    11:00 -18°C° 0 mm 0 mps 723 mmHg 69%
    12:00 -18°C° 0 mm 1 mps 723 mmHg 69%
    13:00 -17°C° 0 mm 1 mps 723 mmHg 68%
    14:00 -16°C° 0 mm 1 mps 722 mmHg 68%
    15:00 -17°C° 0 mm 1 mps 722 mmHg 74%
    16:00 -18°C° 0 mm 1 mps 722 mmHg 79%
    17:00 -19°C° 0 mm 0 mps 723 mmHg 85%
    18:00 -20°C° 0 mm 1 mps 723 mmHg 85%
    19:00 -22°C° 0 mm 1 mps 723 mmHg 85%
    20:00 -23°C° 0 mm 1 mps 724 mmHg 85%
    21:00 -23°C° 0 mm 1 mps 724 mmHg 85%
    22:00 -23°C° 0 mm 1 mps 724 mmHg 84%
    23:00 -24°C° 0 mm 1 mps 724 mmHg 83%
    Show more